FENGYUN 1C DEB, 29844

Orbit data source: Space-Track

FENGYUN 1C DEB, 29844 is space debris in SSO originally from a launch on Mon, 10 May 1999 UTC launched from the Taiyaun Space Center, China (TSC). Fengyun 1C debris stems from the Chinese weather satellite Fengyun-1C, which was intentionally destroyed by a Chinese anti-satellite missile in 2007. This event dramatically increased the amount of space debris, with thousands of trackable fragments posing hazards to satellites and human spaceflight. The Fengyun 1C debris cloud has become a focal point in discussions about space sustainability and the need for international regulations to prevent the creation of new debris.

Loading next visibility...
Identifier
29844, 1999-025EN
Orbit
SSO
Country
Flag of CNCN / PRC
Related business
Manufacturer
Unknown
Mission
Spacecraft
Bus & Motor
Unknown
Mass
Unknown
Launch date (UTC)
1999-05-10 (27 years ago)
Launch vehicle
Unknown
Launch site
Taiyaun Space Center, China (TSC)
Object type
Payload
Rocket body
Debris
Shape & HBR
Unknown shape, 0.1 m
Radar Cross Section
Small (<0.1 m²)

Expand to show TLE details & history
Last TLE update: 1 day ago

TLE from 1 day ago
0 FENGYUN 1C DEB
1 29844U 99025EN  25354.16038895  .00000780  00000-0  26464-3 0  9991
2 29844  98.9370 255.7276 0168425 145.4255 215.8019 14.31999595984474
Epoch: 2025-12-20T03:50Z
TLE epoch observation values (Epoch: 2025-12-20T03:50:57.605Z)
Latitude
0.00008°
Longitude
108.99639°
Altitude
886.531 km
Speed
7.358 km/s
True Right ascension
17h 02m 54s
True Declination
0° 00' 00"
Sunlit
Object was in daylight at epoch
Visualization orbit readout
Latitude
Unknown
Longitude
Unknown
Altitude
Unknown
Speed
Unknown
Apparent Right ascension
Unknown
Apparent Declination
Unknown
Sunlit
N/A
Visualization observer readout
Local Sidereal Time
03:25:19
Azimuth
Unknown
Elevation
Unknown
Doppler factor
Unknown
Orbital elements
Apogee altitude
902.805 km
Perigee altitude
661.609 km
Semi-major axis
7,160.344 km
Eccentricity
0.01684
Inclination
98.937°
RAAN
255.7276°
Arg. of periapsis
145.4255°
True anomaly
214.69191°
Mean anomaly
215.8019°
Eccentric anomaly
215.24502°
Mean motion
3.58214 °/min
Orbital period
100.5 mins
BSTAR
0.00026464
Loading maneuver chart data...
Computing Atmospheric mass density...

Documentation

Showing up to 5 results
|